Back to catalog

EUTE 48A

HB2

AliveCommunicationsGEO
NORAD 24665·PAYLOAD·🇪🇺 EU

Launched Nov 21, 1996 from Cape Canaveral Space Force Station

Loading…

TLE

FreshSource: Space-Track

Epoch: Sep 14, 2026, 07:30 UTC

1 24665U 96067A   26257.31295115 -.00000133  00000-0  00000-0 0  9998
2 24665  12.1143  35.0379 0008715 159.9257  26.9619  0.98381436108939

Track EUTE 48A in real time with AllMySat

Download on the App Store